Time,TemperatureF,DewpointF,PressureIn,WindDirection,WindDirectionDegrees,WindSpeedMPH,WindSpeedGustMPH,Humidity,HourlyPrecipIn,Conditions,Clouds,dailyrainin,SoftwareType,DateUTC
2013-12-22 00:04:00,57.9,57.0,-100.00,NE,48,0.0,3.0,97,0.01,,,0.02,meteohub,2013-12-22 06:04:00,
2013-12-22 00:09:00,57.9,57.0,-100.00,WSW,249,0.0,3.0,97,0.01,,,0.02,meteohub,2013-12-22 06:09:00,
2013-12-22 00:14:00,57.9,57.0,-100.00,West,274,0.0,2.0,97,0.01,,,0.02,meteohub,2013-12-22 06:14:00,
2013-12-22 00:19:00,57.9,57.0,-100.00,WSW,242,1.0,1.0,97,0.01,,,0.02,meteohub,2013-12-22 06:19:00,
2013-12-22 00:24:00,57.9,57.0,-100.00,WSW,239,1.0,1.0,97,0.01,,,0.02,meteohub,2013-12-22 06:24:00,
2013-12-22 00:29:00,57.9,57.0,-100.00,NE,39,0.0,3.0,97,0.00,,,0.02,meteohub,2013-12-22 06:29:00,
2013-12-22 00:34:00,57.9,57.0,-100.00,ENE,76,3.0,5.0,97,0.00,,,0.02,meteohub,2013-12-22 06:34:00,
2013-12-22 00:39:00,57.9,57.0,-100.00,West,277,5.0,5.0,97,0.00,,,0.02,meteohub,2013-12-22 06:39:00,
2013-12-22 00:44:00,58.1,57.2,-100.00,SW,219,3.0,6.0,97,0.00,,,0.02,meteohub,2013-12-22 06:44:00,
2013-12-22 00:49:00,58.3,57.4,-100.00,West,279,1.0,7.0,97,0.00,,,0.02,meteohub,2013-12-22 06:49:00,
2013-12-22 00:54:00,58.3,57.4,-100.00,NE,46,1.0,7.0,97,0.00,,,0.02,meteohub,2013-12-22 06:54:00,
2013-12-22 00:59:00,58.1,57.2,-100.00,NE,39,0.0,5.0,97,0.00,,,0.02,meteohub,2013-12-22 06:59:00,
2013-12-22 01:04:00,57.9,57.0,-100.00,NE,39,0.0,3.0,97,0.00,,,0.02,meteohub,2013-12-22 07:04:00,
2013-12-22 01:09:00,57.9,57.0,-100.00,NE,39,0.0,3.0,97,0.00,,,0.02,meteohub,2013-12-22 07:09:00,
2013-12-22 01:15:00,57.7,56.8,-100.00,NE,38,0.0,0.0,97,0.00,,,0.02,meteohub,2013-12-22 07:15:00,
2013-12-22 01:21:00,57.7,56.8,-100.00,West,278,1.0,1.0,97,0.00,,,0.02,meteohub,2013-12-22 07:21:00,
2013-12-22 01:27:00,57.6,56.7,-100.00,West,278,0.0,1.0,97,0.00,,,0.02,meteohub,2013-12-22 07:27:00,
2013-12-22 01:33:00,57.4,56.5,-100.00,NNE,30,0.0,1.0,97,0.00,,,0.02,meteohub,2013-12-22 07:33:00,
2013-12-22 01:39:00,57.2,56.3,-100.00,NNE,30,0.0,1.0,97,0.00,,,0.02,meteohub,2013-12-22 07:39:00,
2013-12-22 01:44:00,57.0,56.1,-100.00,NNE,30,0.0,1.0,97,0.00,,,0.02,meteohub,2013-12-22 07:44:00,
2013-12-22 01:49:00,57.0,56.1,-100.00,West,276,0.0,1.0,97,0.00,,,0.02,meteohub,2013-12-22 07:49:00,
2013-12-22 01:54:00,57.2,56.3,-100.00,WNW,283,0.0,1.0,97,0.00,,,0.02,meteohub,2013-12-22 07:54:00,
2013-12-22 01:59:00,57.0,56.1,-100.00,NNW,342,0.0,1.0,97,0.00,,,0.02,meteohub,2013-12-22 07:59:00,
2013-12-22 02:04:00,57.0,56.1,-100.00,West,277,0.0,1.0,97,0.00,,,0.02,meteohub,2013-12-22 08:04:00,
2013-12-22 02:09:00,56.8,55.9,-100.00,West,277,0.0,1.0,97,0.00,,,0.02,meteohub,2013-12-22 08:09:00,
2013-12-22 02:14:00,56.8,55.9,-100.00,ENE,60,0.0,1.0,97,0.00,,,0.02,meteohub,2013-12-22 08:14:00,
2013-12-22 02:19:00,56.8,55.9,-100.00,South,170,1.0,1.0,97,0.00,,,0.02,meteohub,2013-12-22 08:19:00,
2013-12-22 02:24:00,57.0,56.1,-100.00,WSW,249,1.0,1.0,97,0.00,,,0.02,meteohub,2013-12-22 08:24:00,
2013-12-22 02:29:00,57.0,56.1,-100.00,North,358,1.0,1.0,97,0.00,,,0.02,meteohub,2013-12-22 08:29:00,
2013-12-22 02:36:00,56.8,55.9,-100.00,WNW,294,1.0,1.0,97,0.00,,,0.02,meteohub,2013-12-22 08:36:00,
2013-12-22 02:42:00,56.8,55.9,-100.00,North,4,0.0,2.0,97,0.00,,,0.02,meteohub,2013-12-22 08:42:00,
2013-12-22 02:48:00,57.0,56.1,-100.00,West,281,1.0,3.0,97,0.00,,,0.02,meteohub,2013-12-22 08:48:00,
2013-12-22 02:54:00,57.0,56.1,-100.00,West,277,1.0,3.0,97,0.00,,,0.02,meteohub,2013-12-22 08:54:00,
2013-12-22 02:59:00,57.2,56.3,-100.00,West,278,1.0,3.0,97,0.00,,,0.02,meteohub,2013-12-22 08:59:00,
2013-12-22 03:04:00,57.2,56.3,-100.00,West,273,0.0,2.0,97,0.00,,,0.02,meteohub,2013-12-22 09:04:00,
2013-12-22 03:09:00,57.0,56.1,-100.00,West,273,0.0,1.0,97,0.00,,,0.02,meteohub,2013-12-22 09:09:00,
2013-12-22 03:14:00,57.0,56.1,-100.00,West,273,0.0,1.0,97,0.00,,,0.02,meteohub,2013-12-22 09:14:00,
2013-12-22 03:19:00,56.8,55.9,-100.00,West,273,0.0,1.0,97,0.00,,,0.02,meteohub,2013-12-22 09:19:00,
2013-12-22 03:24:00,56.7,55.8,-100.00,West,273,0.0,1.0,97,0.00,,,0.02,meteohub,2013-12-22 09:24:00,
2013-12-22 03:29:00,56.5,55.6,-100.00,West,273,0.0,1.0,97,0.00,,,0.02,meteohub,2013-12-22 09:29:00,
2013-12-22 03:34:00,56.3,55.4,-100.00,NNW,336,0.0,1.0,97,0.00,,,0.02,meteohub,2013-12-22 09:34:00,
2013-12-22 03:39:00,56.1,55.2,-100.00,NW,305,1.0,2.0,97,0.00,,,0.02,meteohub,2013-12-22 09:39:00,
2013-12-22 03:44:00,56.5,55.6,-100.00,NNE,30,2.0,3.0,97,0.00,,,0.02,meteohub,2013-12-22 09:44:00,
2013-12-22 03:49:00,56.7,55.8,-100.00,NE,47,2.0,3.0,97,0.01,,,0.03,meteohub,2013-12-22 09:49:00,
2013-12-22 03:54:00,56.7,55.8,-100.00,ENE,76,0.0,3.0,97,0.01,,,0.03,meteohub,2013-12-22 09:54:00,
2013-12-22 03:59:00,56.7,55.8,-100.00,ENE,71,0.0,3.0,97,0.01,,,0.03,meteohub,2013-12-22 09:59:00,
2013-12-22 04:04:00,56.7,55.8,-100.00,ENE,71,0.0,3.0,97,0.01,,,0.03,meteohub,2013-12-22 10:04:00,
2013-12-22 04:09:00,56.7,55.8,-100.00,SSE,156,0.0,2.0,97,0.01,,,0.03,meteohub,2013-12-22 10:09:00,
2013-12-22 04:14:00,56.7,55.8,-100.00,SSE,156,0.0,1.0,97,0.01,,,0.03,meteohub,2013-12-22 10:14:00,
2013-12-22 04:19:00,56.7,55.8,-100.00,SSE,157,0.0,0.0,97,0.01,,,0.03,meteohub,2013-12-22 10:19:00,
2013-12-22 04:24:00,56.7,55.8,-100.00,SSE,156,0.0,0.0,97,0.01,,,0.03,meteohub,2013-12-22 10:24:00,
2013-12-22 04:30:00,56.8,55.9,-100.00,SSE,156,0.0,0.0,97,0.01,,,0.03,meteohub,2013-12-22 10:30:00,
2013-12-22 04:37:00,56.8,55.9,-100.00,SSE,156,0.0,0.0,97,0.01,,,0.03,meteohub,2013-12-22 10:37:00,
2013-12-22 04:43:00,57.0,56.1,-100.00,SSE,157,0.0,0.0,97,0.00,,,0.03,meteohub,2013-12-22 10:43:00,
2013-12-22 04:49:00,57.0,56.1,-100.00,SSE,156,0.0,0.0,97,0.00,,,0.03,meteohub,2013-12-22 10:49:00,
2013-12-22 04:54:00,57.0,56.1,-100.00,SSE,156,0.0,0.0,97,0.00,,,0.03,meteohub,2013-12-22 10:54:00,
2013-12-22 04:59:00,57.2,56.3,-100.00,South,173,0.0,0.0,97,0.01,,,0.04,meteohub,2013-12-22 10:59:00,
2013-12-22 05:04:00,57.0,56.1,-100.00,South,176,0.0,1.0,97,0.01,,,0.04,meteohub,2013-12-22 11:04:00,
2013-12-22 05:09:00,57.0,56.1,-100.00,South,176,0.0,1.0,97,0.01,,,0.04,meteohub,2013-12-22 11:09:00,
2013-12-22 05:14:00,57.2,56.3,-100.00,SSE,160,0.0,1.0,97,0.01,,,0.04,meteohub,2013-12-22 11:14:00,
2013-12-22 05:19:00,57.2,56.3,-100.00,SW,217,1.0,1.0,97,0.01,,,0.04,meteohub,2013-12-22 11:19:00,
2013-12-22 05:24:00,57.4,56.5,-100.00,East,95,0.0,2.0,97,0.01,,,0.04,meteohub,2013-12-22 11:24:00,
2013-12-22 05:31:00,57.2,56.3,-100.00,East,95,0.0,2.0,97,0.01,,,0.04,meteohub,2013-12-22 11:31:00,
2013-12-22 05:37:00,57.2,56.3,-100.00,East,95,0.0,2.0,97,0.01,,,0.04,meteohub,2013-12-22 11:37:00,
2013-12-22 05:43:00,57.0,56.1,-100.00,East,95,0.0,0.0,97,0.01,,,0.04,meteohub,2013-12-22 11:43:00,
2013-12-22 05:49:00,57.0,56.1,-100.00,East,95,0.0,1.0,97,0.01,,,0.04,meteohub,2013-12-22 11:49:00,
2013-12-22 05:54:00,57.0,56.1,-100.00,East,95,0.0,1.0,97,0.00,,,0.04,meteohub,2013-12-22 11:54:00,
2013-12-22 05:59:00,56.8,55.9,-100.00,East,95,0.0,1.0,97,0.00,,,0.04,meteohub,2013-12-22 11:59:00,
2013-12-22 06:04:00,56.8,55.9,-100.00,East,95,0.0,0.0,97,0.00,,,0.04,meteohub,2013-12-22 12:04:00,
2013-12-22 06:09:00,56.8,55.9,-100.00,East,95,0.0,0.0,97,0.00,,,0.04,meteohub,2013-12-22 12:09:00,
2013-12-22 06:14:00,56.8,55.9,-100.00,East,94,0.0,0.0,97,0.00,,,0.04,meteohub,2013-12-22 12:14:00,
2013-12-22 06:19:00,56.7,55.8,-100.00,East,95,0.0,0.0,97,0.00,,,0.04,meteohub,2013-12-22 12:19:00,
2013-12-22 06:24:00,56.7,55.8,-100.00,East,95,0.0,0.0,97,0.00,,,0.04,meteohub,2013-12-22 12:24:00,
2013-12-22 06:29:00,56.7,55.8,-100.00,East,95,0.0,0.0,97,0.00,,,0.04,meteohub,2013-12-22 12:29:00,
2013-12-22 06:34:00,56.5,55.6,-100.00,East,95,0.0,1.0,97,0.00,,,0.04,meteohub,2013-12-22 12:34:00,
2013-12-22 06:39:00,56.5,55.6,-100.00,East,95,0.0,1.0,97,0.00,,,0.04,meteohub,2013-12-22 12:39:00,
2013-12-22 06:46:00,56.5,55.6,-100.00,East,94,0.0,1.0,97,0.00,,,0.04,meteohub,2013-12-22 12:46:00,
2013-12-22 06:52:00,56.5,55.6,-100.00,East,95,0.0,0.0,97,0.00,,,0.04,meteohub,2013-12-22 12:52:00,
2013-12-22 06:58:00,56.5,55.6,-100.00,East,95,0.0,0.0,97,0.00,,,0.04,meteohub,2013-12-22 12:58:00,
2013-12-22 07:04:00,56.7,55.8,-100.00,East,95,0.0,0.0,97,0.00,,,0.04,meteohub,2013-12-22 13:04:00,
2013-12-22 07:10:00,56.5,55.6,-100.00,West,262,0.0,0.0,97,0.00,,,0.04,meteohub,2013-12-22 13:10:00,
2013-12-22 07:16:00,56.5,55.6,-100.00,NNW,347,1.0,2.0,97,0.00,,,0.04,meteohub,2013-12-22 13:16:00,
2013-12-22 07:22:00,56.5,55.6,-100.00,North,355,0.0,2.0,97,0.00,,,0.04,meteohub,2013-12-22 13:22:00,
2013-12-22 07:28:00,56.5,55.6,-100.00,North,356,0.0,2.0,97,0.00,,,0.04,meteohub,2013-12-22 13:28:00,
2013-12-22 07:34:00,56.5,55.6,-100.00,North,356,0.0,2.0,97,0.00,,,0.04,meteohub,2013-12-22 13:34:00,
2013-12-22 07:39:00,56.7,55.8,-100.00,North,354,0.0,1.0,97,0.00,,,0.04,meteohub,2013-12-22 13:39:00,
2013-12-22 07:44:00,56.7,55.8,-100.00,North,354,0.0,0.0,97,0.00,,,0.04,meteohub,2013-12-22 13:44:00,
2013-12-22 07:49:00,56.7,55.8,-100.00,North,354,0.0,1.0,97,0.00,,,0.04,meteohub,2013-12-22 13:49:00,
2013-12-22 07:54:00,56.7,55.8,-100.00,North,354,0.0,1.0,97,0.00,,,0.04,meteohub,2013-12-22 13:54:00,
2013-12-22 07:59:00,56.7,55.8,-100.00,North,354,0.0,1.0,97,0.00,,,0.04,meteohub,2013-12-22 13:59:00,
2013-12-22 08:04:00,56.8,55.9,-100.00,North,354,0.0,0.0,97,0.00,,,0.04,meteohub,2013-12-22 14:04:00,
2013-12-22 08:09:00,56.8,55.9,-100.00,North,354,0.0,0.0,97,0.00,,,0.04,meteohub,2013-12-22 14:09:00,
2013-12-22 08:14:00,57.0,56.1,-100.00,WNW,285,0.0,1.0,97,0.00,,,0.04,meteohub,2013-12-22 14:14:00,
2013-12-22 08:19:00,57.0,56.1,-100.00,NNE,26,0.0,1.0,97,0.00,,,0.04,meteohub,2013-12-22 14:19:00,
2013-12-22 08:24:00,57.0,56.1,-100.00,NNE,26,0.0,1.0,97,0.00,,,0.04,meteohub,2013-12-22 14:24:00,
2013-12-22 08:29:00,57.0,56.1,-100.00,WNW,301,0.0,1.0,97,0.00,,,0.04,meteohub,2013-12-22 14:29:00,
2013-12-22 08:34:00,57.2,56.3,-100.00,WNW,284,0.0,1.0,97,0.00,,,0.04,meteohub,2013-12-22 14:34:00,
2013-12-22 08:39:00,57.4,56.5,-100.00,West,278,1.0,1.0,97,0.00,,,0.04,meteohub,2013-12-22 14:39:00,
2013-12-22 08:44:00,57.7,56.8,-100.00,North,8,0.0,2.0,97,0.00,,,0.04,meteohub,2013-12-22 14:44:00,
2013-12-22 08:49:00,57.7,56.8,-100.00,West,268,0.0,3.0,97,0.00,,,0.04,meteohub,2013-12-22 14:49:00,
2013-12-22 08:54:00,57.9,57.0,-100.00,NW,308,1.0,3.0,97,0.00,,,0.04,meteohub,2013-12-22 14:54:00,
2013-12-22 08:59:00,58.3,57.4,-100.00,West,267,1.0,4.0,97,0.00,,,0.04,meteohub,2013-12-22 14:59:00,
2013-12-22 09:04:00,58.3,57.4,-100.00,WNW,285,4.0,4.0,97,0.00,,,0.04,meteohub,2013-12-22 15:04:00,
2013-12-22 09:09:00,58.3,57.2,-100.00,NNW,330,4.0,6.0,96,0.00,,,0.04,meteohub,2013-12-22 15:09:00,
2013-12-22 09:14:00,58.3,57.2,-100.00,NW,307,4.0,6.0,96,0.00,,,0.04,meteohub,2013-12-22 15:14:00,
2013-12-22 09:20:00,58.3,56.5,-100.00,WNW,283,3.0,6.0,94,0.00,,,0.04,meteohub,2013-12-22 15:20:00,
2013-12-22 09:26:00,58.5,56.1,-100.00,West,267,1.0,9.0,92,0.00,,,0.04,meteohub,2013-12-22 15:26:00,
2013-12-22 09:32:00,58.6,55.0,-100.00,WSW,248,1.0,9.0,88,0.00,,,0.04,meteohub,2013-12-22 15:32:00,
2013-12-22 09:38:00,58.6,54.9,-100.00,NNW,334,3.0,7.0,87,0.00,,,0.04,meteohub,2013-12-22 15:38:00,
2013-12-22 09:44:00,58.8,53.6,-100.00,NNW,331,4.0,9.0,83,0.00,,,0.04,meteohub,2013-12-22 15:44:00,
2013-12-22 09:49:00,58.8,53.4,-100.00,WNW,295,2.0,10.0,82,0.00,,,0.04,meteohub,2013-12-22 15:49:00,
2013-12-22 09:54:00,58.8,53.4,-100.00,North,0,5.0,10.0,82,0.00,,,0.04,meteohub,2013-12-22 15:54:00,
2013-12-22 09:59:00,59.0,53.6,-100.00,West,260,0.0,7.0,82,0.00,,,0.04,meteohub,2013-12-22 15:59:00,
2013-12-22 10:04:00,59.4,54.1,-100.00,WNW,284,0.0,7.0,83,0.00,,,0.04,meteohub,2013-12-22 16:04:00,
2013-12-22 10:09:00,59.7,53.6,-100.00,NW,305,5.0,7.0,80,0.00,,,0.04,meteohub,2013-12-22 16:09:00,
2013-12-22 10:14:00,59.4,52.9,-100.00,NNE,23,3.0,8.0,79,0.00,,,0.04,meteohub,2013-12-22 16:14:00,
2013-12-22 10:19:00,59.2,53.4,-100.00,West,269,5.0,8.0,81,0.00,,,0.04,meteohub,2013-12-22 16:19:00,
2013-12-22 10:24:00,58.8,52.3,-100.00,West,266,5.0,8.0,79,0.00,,,0.04,meteohub,2013-12-22 16:24:00,
2013-12-22 10:29:00,58.6,52.2,-100.00,West,280,3.0,6.0,79,0.00,,,0.04,meteohub,2013-12-22 16:29:00,
2013-12-22 10:34:00,58.8,53.1,-100.00,West,274,1.0,6.0,81,0.00,,,0.04,meteohub,2013-12-22 16:34:00,
2013-12-22 10:39:00,58.8,52.7,-100.00,WNW,287,3.0,8.0,80,0.00,,,0.04,meteohub,2013-12-22 16:39:00,
2013-12-22 10:44:00,58.6,52.5,-100.00,NW,314,5.0,8.0,80,0.00,,,0.04,meteohub,2013-12-22 16:44:00,
2013-12-22 10:49:00,58.6,52.5,-100.00,NNE,15,3.0,8.0,80,0.00,,,0.04,meteohub,2013-12-22 16:49:00,
2013-12-22 10:56:00,58.5,52.7,-100.00,NNW,329,4.0,9.0,81,0.00,,,0.04,meteohub,2013-12-22 16:56:00,
2013-12-22 11:02:00,58.6,52.9,-100.00,North,349,7.0,9.0,81,0.00,,,0.04,meteohub,2013-12-22 17:02:00,
2013-12-22 11:08:00,58.5,52.7,-100.00,North,4,1.0,9.0,81,0.00,,,0.04,meteohub,2013-12-22 17:08:00,
2013-12-22 11:14:00,58.6,53.2,-100.00,WSW,242,7.0,9.0,82,0.00,,,0.04,meteohub,2013-12-22 17:14:00,
2013-12-22 11:19:00,58.6,52.5,-100.00,WNW,291,4.0,9.0,80,0.00,,,0.04,meteohub,2013-12-22 17:19:00,
2013-12-22 11:24:00,58.5,52.3,-100.00,WSW,238,2.0,10.0,80,0.00,,,0.04,meteohub,2013-12-22 17:24:00,
2013-12-22 11:29:00,58.3,52.2,-100.00,NNW,331,4.0,10.0,80,0.00,,,0.04,meteohub,2013-12-22 17:29:00,
2013-12-22 11:34:00,57.9,51.8,-100.00,WSW,253,6.0,15.0,80,0.00,,,0.04,meteohub,2013-12-22 17:34:00,
2013-12-22 11:39:00,57.2,50.0,-100.00,WSW,239,9.0,15.0,77,0.00,,,0.04,meteohub,2013-12-22 17:39:00,
2013-12-22 11:44:00,56.8,50.0,-100.00,NNW,345,6.0,16.0,78,0.00,,,0.04,meteohub,2013-12-22 17:44:00,
2013-12-22 11:49:00,56.3,49.5,-100.00,WSW,257,5.0,16.0,78,0.00,,,0.04,meteohub,2013-12-22 17:49:00,
2013-12-22 11:54:00,56.7,50.5,-100.00,NW,305,6.0,16.0,80,0.00,,,0.04,meteohub,2013-12-22 17:54:00,
2013-12-22 11:59:00,56.8,50.0,-100.00,WNW,291,6.0,13.0,78,0.00,,,0.04,meteohub,2013-12-22 17:59:00,
2013-12-22 12:04:00,56.7,50.2,-100.00,West,269,2.0,15.0,79,0.00,,,0.04,meteohub,2013-12-22 18:04:00,
2013-12-22 12:09:00,56.7,50.2,-100.00,NNW,328,8.0,15.0,79,0.00,,,0.04,meteohub,2013-12-22 18:09:00,
2013-12-22 12:14:00,56.5,50.0,-100.00,West,268,7.0,14.0,79,0.00,,,0.04,meteohub,2013-12-22 18:14:00,
2013-12-22 12:19:00,56.7,50.2,-100.00,WNW,290,9.0,14.0,79,0.00,,,0.04,meteohub,2013-12-22 18:19:00,
2013-12-22 12:24:00,56.5,49.6,-100.00,NW,315,7.0,14.0,78,0.00,,,0.04,meteohub,2013-12-22 18:24:00,
2013-12-22 12:29:00,56.5,49.6,-100.00,West,278,8.0,14.0,78,0.00,,,0.04,meteohub,2013-12-22 18:29:00,
2013-12-22 12:34:00,55.9,48.9,-100.00,North,8,5.0,14.0,77,0.00,,,0.04,meteohub,2013-12-22 18:34:00,
2013-12-22 12:39:00,55.8,48.9,-100.00,NW,325,4.0,14.0,78,0.00,,,0.04,meteohub,2013-12-22 18:39:00,
2013-12-22 12:44:00,55.8,48.9,-100.00,West,277,7.0,13.0,78,0.00,,,0.04,meteohub,2013-12-22 18:44:00,
2013-12-22 12:49:00,55.8,48.9,-100.00,West,273,5.0,13.0,78,0.00,,,0.04,meteohub,2013-12-22 18:49:00,
2013-12-22 12:54:00,55.8,48.4,-100.00,NNE,13,5.0,14.0,76,0.00,,,0.04,meteohub,2013-12-22 18:54:00,
2013-12-22 12:59:00,55.2,48.2,-100.00,NW,325,7.0,14.0,77,0.00,,,0.04,meteohub,2013-12-22 18:59:00,
2013-12-22 13:04:00,55.0,47.7,-100.00,West,266,12.0,14.0,76,0.00,,,0.04,meteohub,2013-12-22 19:04:00,
2013-12-22 13:09:00,54.7,47.3,-100.00,NE,49,5.0,14.0,76,0.00,,,0.04,meteohub,2013-12-22 19:09:00,
2013-12-22 13:14:00,54.7,47.7,-100.00,North,8,11.0,14.0,77,0.00,,,0.04,meteohub,2013-12-22 19:14:00,
2013-12-22 13:19:00,54.9,47.5,-100.00,NW,321,5.0,15.0,76,0.00,,,0.04,meteohub,2013-12-22 19:19:00,
2013-12-22 13:24:00,55.6,48.6,-100.00,North,353,6.0,15.0,77,0.00,,,0.04,meteohub,2013-12-22 19:24:00,
2013-12-22 13:29:00,56.1,48.4,-100.00,NNW,347,6.0,16.0,75,0.00,,,0.04,meteohub,2013-12-22 19:29:00,
2013-12-22 13:34:00,56.8,48.6,-100.00,NW,319,4.0,16.0,74,0.00,,,0.04,meteohub,2013-12-22 19:34:00,
2013-12-22 13:39:00,57.4,49.1,-100.00,East,101,0.0,16.0,74,0.00,,,0.04,meteohub,2013-12-22 19:39:00,
2013-12-22 13:44:00,57.6,48.6,-100.00,NW,307,9.0,13.0,72,0.00,,,0.04,meteohub,2013-12-22 19:44:00,
2013-12-22 13:49:00,57.0,47.3,-100.00,WSW,243,7.0,18.0,70,0.00,,,0.04,meteohub,2013-12-22 19:49:00,
2013-12-22 13:54:00,56.8,47.1,-100.00,West,273,6.0,18.0,70,0.00,,,0.04,meteohub,2013-12-22 19:54:00,
2013-12-22 13:59:00,57.0,47.7,-100.00,WNW,287,0.0,18.0,71,0.00,,,0.04,meteohub,2013-12-22 19:59:00,
2013-12-22 14:04:00,57.6,47.5,-100.00,ESE,117,7.0,13.0,69,0.00,,,0.04,meteohub,2013-12-22 20:04:00,
2013-12-22 14:09:00,57.7,48.0,-100.00,NNE,33,8.0,13.0,70,0.00,,,0.04,meteohub,2013-12-22 20:09:00,
2013-12-22 14:14:00,57.9,47.8,-100.00,NW,319,5.0,13.0,69,0.00,,,0.04,meteohub,2013-12-22 20:14:00,
2013-12-22 14:19:00,57.9,47.8,-100.00,West,280,4.0,13.0,69,0.00,,,0.04,meteohub,2013-12-22 20:19:00,
2013-12-22 14:24:00,57.6,47.5,-100.00,NNE,15,1.0,13.0,69,0.00,,,0.04,meteohub,2013-12-22 20:24:00,
2013-12-22 14:29:00,57.6,47.5,-100.00,NNE,12,9.0,11.0,69,0.00,,,0.04,meteohub,2013-12-22 20:29:00,
2013-12-22 14:34:00,57.0,46.6,-100.00,ENE,72,6.0,12.0,68,0.00,,,0.04,meteohub,2013-12-22 20:34:00,
2013-12-22 14:39:00,56.5,46.0,-100.00,NNW,342,7.0,17.0,68,0.00,,,0.04,meteohub,2013-12-22 20:39:00,
2013-12-22 14:44:00,56.7,46.6,-100.00,WNW,295,5.0,17.0,69,0.00,,,0.04,meteohub,2013-12-22 20:44:00,
2013-12-22 14:49:00,56.1,46.0,-100.00,NE,39,6.0,15.0,69,0.00,,,0.04,meteohub,2013-12-22 20:49:00,
2013-12-22 14:54:00,56.3,46.6,-100.00,North,356,3.0,15.0,70,0.00,,,0.04,meteohub,2013-12-22 20:54:00,
2013-12-22 14:59:00,56.3,46.2,-100.00,NNE,25,10.0,15.0,69,0.00,,,0.04,meteohub,2013-12-22 20:59:00,
2013-12-22 15:04:00,56.1,46.0,-100.00,North,349,9.0,15.0,69,0.00,,,0.04,meteohub,2013-12-22 21:04:00,
2013-12-22 15:09:00,56.1,45.7,-100.00,NE,42,3.0,15.0,68,0.00,,,0.04,meteohub,2013-12-22 21:09:00,
2013-12-22 15:14:00,56.1,45.7,-100.00,NNW,340,3.0,13.0,68,0.00,,,0.04,meteohub,2013-12-22 21:14:00,
2013-12-22 15:19:00,56.1,45.7,-100.00,NW,316,4.0,13.0,68,0.00,,,0.04,meteohub,2013-12-22 21:19:00,
2013-12-22 15:24:00,56.3,46.2,-100.00,NNW,334,5.0,13.0,69,0.00,,,0.04,meteohub,2013-12-22 21:24:00,
2013-12-22 15:29:00,56.3,45.5,-100.00,WNW,294,8.0,13.0,67,0.00,,,0.04,meteohub,2013-12-22 21:29:00,
2013-12-22 15:34:00,56.1,45.7,-100.00,East,99,2.0,18.0,68,0.00,,,0.04,meteohub,2013-12-22 21:34:00,
2013-12-22 15:40:00,55.9,44.8,-100.00,NNW,332,6.0,18.0,66,0.00,,,0.04,meteohub,2013-12-22 21:40:00,
2013-12-22 15:46:00,55.6,44.8,-100.00,West,264,5.0,18.0,67,0.00,,,0.04,meteohub,2013-12-22 21:46:00,
2013-12-22 15:52:00,55.9,45.1,-100.00,West,276,0.0,17.0,67,0.00,,,0.04,meteohub,2013-12-22 21:52:00,
2013-12-22 15:58:00,55.8,44.2,-100.00,North,352,10.0,17.0,65,0.00,,,0.04,meteohub,2013-12-22 21:58:00,
2013-12-22 16:04:00,55.0,43.9,-100.00,North,352,5.0,14.0,66,0.00,,,0.04,meteohub,2013-12-22 22:04:00,
2013-12-22 16:09:00,54.7,43.5,-100.00,NNE,33,4.0,14.0,66,0.00,,,0.04,meteohub,2013-12-22 22:09:00,
2013-12-22 16:14:00,54.1,43.0,-100.00,North,357,6.0,16.0,66,0.00,,,0.04,meteohub,2013-12-22 22:14:00,
2013-12-22 16:19:00,53.8,42.6,-100.00,NNW,329,8.0,16.0,66,0.00,,,0.04,meteohub,2013-12-22 22:19:00,
2013-12-22 16:24:00,53.8,43.2,-100.00,North,8,3.0,16.0,67,0.00,,,0.04,meteohub,2013-12-22 22:24:00,
2013-12-22 16:29:00,53.8,43.2,-100.00,West,281,5.0,15.0,67,0.00,,,0.04,meteohub,2013-12-22 22:29:00,
2013-12-22 16:34:00,53.8,43.2,-100.00,SE,146,3.0,12.0,67,0.00,,,0.04,meteohub,2013-12-22 22:34:00,
2013-12-22 16:39:00,53.8,43.2,-100.00,North,354,5.0,13.0,67,0.00,,,0.04,meteohub,2013-12-22 22:39:00,
2013-12-22 16:44:00,53.6,43.0,-100.00,West,271,4.0,13.0,67,0.00,,,0.04,meteohub,2013-12-22 22:44:00,
2013-12-22 16:49:00,53.8,43.2,-100.00,NW,308,4.0,13.0,67,0.00,,,0.04,meteohub,2013-12-22 22:49:00,
2013-12-22 16:54:00,53.8,43.2,-100.00,WNW,284,3.0,10.0,67,0.00,,,0.04,meteohub,2013-12-22 22:54:00,
2013-12-22 16:59:00,53.8,42.6,-100.00,WSW,246,1.0,10.0,66,0.00,,,0.04,meteohub,2013-12-22 22:59:00,
2013-12-22 17:04:00,53.4,41.9,-100.00,NNW,339,3.0,10.0,65,0.00,,,0.04,meteohub,2013-12-22 23:04:00,
2013-12-22 17:09:00,52.9,41.9,-100.00,WNW,291,2.0,9.0,66,0.00,,,0.04,meteohub,2013-12-22 23:09:00,
2013-12-22 17:14:00,52.5,41.5,-100.00,North,5,4.0,9.0,66,0.00,,,0.04,meteohub,2013-12-22 23:14:00,
2013-12-22 17:19:00,52.0,41.4,-100.00,NNW,345,9.0,9.0,67,0.00,,,0.04,meteohub,2013-12-22 23:19:00,
2013-12-22 17:24:00,51.4,40.8,-100.00,NNW,336,10.0,11.0,67,0.00,,,0.04,meteohub,2013-12-22 23:24:00,
2013-12-22 17:29:00,51.3,41.0,-100.00,NW,323,6.0,11.0,68,0.00,,,0.04,meteohub,2013-12-22 23:29:00,
2013-12-22 17:34:00,50.9,41.2,-100.00,WSW,238,0.0,11.0,69,0.00,,,0.04,meteohub,2013-12-22 23:34:00,
2013-12-22 17:39:00,50.5,41.2,-100.00,NW,320,1.0,10.0,70,0.00,,,0.04,meteohub,2013-12-22 23:39:00,
2013-12-22 17:44:00,50.4,41.0,-100.00,WSW,249,8.0,9.0,70,0.00,,,0.04,meteohub,2013-12-22 23:44:00,
2013-12-22 17:49:00,50.0,40.3,-100.00,North,349,7.0,8.0,69,0.00,,,0.04,meteohub,2013-12-22 23:49:00,
2013-12-22 17:54:00,49.6,39.9,-100.00,West,276,4.0,12.0,69,0.00,,,0.04,meteohub,2013-12-22 23:54:00,
2013-12-22 17:59:00,49.5,39.7,-100.00,NE,45,3.0,12.0,69,0.00,,,0.04,meteohub,2013-12-22 23:59:00,
2013-12-22 18:04:00,49.3,39.9,-100.00,NNE,18,4.0,12.0,70,0.00,,,0.04,meteohub,2013-12-23 00:04:00,
2013-12-22 18:09:00,48.9,39.6,-100.00,NNE,19,7.0,12.0,70,0.00,,,0.00,meteohub,2013-12-23 00:09:00,
2013-12-22 18:14:00,48.7,39.0,-100.00,WSW,243,3.0,11.0,69,0.00,,,0.00,meteohub,2013-12-23 00:14:00,
2013-12-22 18:19:00,48.6,38.8,-100.00,NW,320,3.0,15.0,69,0.00,,,0.00,meteohub,2013-12-23 00:19:00,
2013-12-22 18:24:00,48.4,38.7,-100.00,NNW,333,6.0,15.0,69,0.00,,,0.00,meteohub,2013-12-23 00:24:00,
2013-12-22 18:29:00,48.0,38.7,-100.00,NE,46,4.0,15.0,70,0.00,,,0.00,meteohub,2013-12-23 00:29:00,
2013-12-22 18:34:00,47.8,38.1,-100.00,WNW,290,9.0,16.0,69,0.00,,,0.00,meteohub,2013-12-23 00:34:00,
2013-12-22 18:40:00,47.7,37.6,-100.00,NE,44,7.0,16.0,68,0.00,,,0.00,meteohub,2013-12-23 00:40:00,
2013-12-22 18:47:00,47.5,37.4,-100.00,NNW,338,5.0,16.0,68,0.00,,,0.00,meteohub,2013-12-23 00:47:00,
2013-12-22 18:53:00,47.1,37.4,-100.00,NNW,338,3.0,10.0,69,0.00,,,0.00,meteohub,2013-12-23 00:53:00,
2013-12-22 18:59:00,46.8,37.2,-100.00,NW,310,7.0,12.0,69,0.00,,,0.00,meteohub,2013-12-23 00:59:00,
2013-12-22 19:04:00,46.6,36.5,-100.00,WNW,294,3.0,12.0,68,0.00,,,0.00,meteohub,2013-12-23 01:04:00,
2013-12-22 19:09:00,46.4,36.9,-100.00,West,281,8.0,12.0,69,0.00,,,0.00,meteohub,2013-12-23 01:09:00,
2013-12-22 19:14:00,46.2,36.7,-100.00,NW,316,5.0,15.0,69,0.00,,,0.00,meteohub,2013-12-23 01:14:00,
2013-12-22 19:19:00,46.0,36.5,-100.00,NNW,338,6.0,15.0,69,0.00,,,0.00,meteohub,2013-12-23 01:19:00,
2013-12-22 19:24:00,45.9,36.7,-100.00,East,86,2.0,12.0,70,0.00,,,0.00,meteohub,2013-12-23 01:24:00,
2013-12-22 19:29:00,45.7,36.5,-100.00,West,260,4.0,15.0,70,0.00,,,0.00,meteohub,2013-12-23 01:29:00,
2013-12-22 19:34:00,45.5,36.0,-100.00,WNW,287,5.0,15.0,69,0.00,,,0.00,meteohub,2013-12-23 01:34:00,
2013-12-22 19:39:00,45.3,35.8,-100.00,East,86,4.0,15.0,69,0.00,,,0.00,meteohub,2013-12-23 01:39:00,
2013-12-22 19:44:00,45.1,36.0,-100.00,WNW,293,4.0,19.0,70,0.00,,,0.00,meteohub,2013-12-23 01:44:00,
2013-12-22 19:49:00,45.1,36.0,-100.00,WNW,290,1.0,19.0,70,0.00,,,0.00,meteohub,2013-12-23 01:49:00,
2013-12-22 19:54:00,45.0,35.8,-100.00,WNW,285,4.0,16.0,70,0.00,,,0.00,meteohub,2013-12-23 01:54:00,
2013-12-22 19:59:00,44.8,36.0,-100.00,NE,56,2.0,12.0,71,0.00,,,0.00,meteohub,2013-12-23 01:59:00,
2013-12-22 20:04:00,44.8,36.0,-100.00,NNW,339,4.0,10.0,71,0.00,,,0.00,meteohub,2013-12-23 02:04:00,
2013-12-22 20:09:00,44.4,36.0,-100.00,North,5,6.0,10.0,72,0.00,,,0.00,meteohub,2013-12-23 02:09:00,
2013-12-22 20:14:00,44.4,35.6,-100.00,West,276,2.0,13.0,71,0.00,,,0.00,meteohub,2013-12-23 02:14:00,
2013-12-22 20:19:00,44.2,35.8,-100.00,NNW,330,5.0,13.0,72,0.00,,,0.00,meteohub,2013-12-23 02:19:00,
2013-12-22 20:24:00,44.2,35.8,-100.00,WNW,295,6.0,14.0,72,0.00,,,0.00,meteohub,2013-12-23 02:24:00,
2013-12-22 20:29:00,44.1,35.6,-100.00,North,1,2.0,14.0,72,0.00,,,0.00,meteohub,2013-12-23 02:29:00,
2013-12-22 20:34:00,43.9,35.8,-100.00,NNW,347,7.0,14.0,73,0.00,,,0.00,meteohub,2013-12-23 02:34:00,
2013-12-22 20:39:00,43.7,35.6,-100.00,ENE,72,1.0,13.0,73,0.00,,,0.00,meteohub,2013-12-23 02:39:00,
2013-12-22 20:44:00,43.5,35.8,-100.00,North,354,1.0,13.0,74,0.00,,,0.00,meteohub,2013-12-23 02:44:00,
2013-12-22 20:49:00,43.3,36.0,-100.00,NE,36,5.0,10.0,75,0.00,,,0.00,meteohub,2013-12-23 02:49:00,
2013-12-22 20:54:00,43.2,35.8,-100.00,NE,51,8.0,10.0,75,0.00,,,0.00,meteohub,2013-12-23 02:54:00,
2013-12-22 20:59:00,43.0,35.6,-100.00,NNW,342,0.0,14.0,75,0.00,,,0.00,meteohub,2013-12-23 02:59:00,
2013-12-22 21:04:00,42.6,35.2,-100.00,NE,40,7.0,14.0,75,0.00,,,0.00,meteohub,2013-12-23 03:04:00,
2013-12-22 21:09:00,42.4,35.1,-100.00,WNW,303,12.0,19.0,75,0.00,,,0.00,meteohub,2013-12-23 03:09:00,
2013-12-22 21:14:00,42.1,34.7,-100.00,ENE,70,7.0,19.0,75,0.00,,,0.00,meteohub,2013-12-23 03:14:00,
2013-12-22 21:19:00,41.7,34.0,-100.00,WNW,301,6.0,19.0,74,0.00,,,0.00,meteohub,2013-12-23 03:19:00,
2013-12-22 21:24:00,41.5,34.2,-100.00,ESE,114,1.0,18.0,75,0.00,,,0.00,meteohub,2013-12-23 03:24:00,
2013-12-22 21:29:00,41.2,33.8,-100.00,NNE,18,8.0,18.0,75,0.00,,,0.00,meteohub,2013-12-23 03:29:00,
2013-12-22 21:35:00,40.6,33.1,-100.00,East,84,6.0,18.0,74,0.00,,,0.00,meteohub,2013-12-23 03:35:00,
2013-12-22 21:41:00,40.3,32.4,-100.00,SW,218,1.0,15.0,73,0.00,,,0.00,meteohub,2013-12-23 03:41:00,
2013-12-22 21:47:00,39.9,32.4,-100.00,NNW,345,13.0,17.0,74,0.00,,,0.00,meteohub,2013-12-23 03:47:00,
2013-12-22 21:53:00,39.7,32.2,-100.00,NNW,330,4.0,15.0,74,0.00,,,0.00,meteohub,2013-12-23 03:53:00,
2013-12-22 21:59:00,39.7,32.2,-100.00,WNW,297,3.0,15.0,74,0.00,,,0.00,meteohub,2013-12-23 03:59:00,
2013-12-22 22:04:00,39.6,32.4,-100.00,West,271,1.0,13.0,75,0.00,,,0.00,meteohub,2013-12-23 04:04:00,
2013-12-22 22:09:00,39.6,32.4,-100.00,NE,41,2.0,11.0,75,0.00,,,0.00,meteohub,2013-12-23 04:09:00,
2013-12-22 22:14:00,39.4,32.2,-100.00,West,271,0.0,10.0,75,0.00,,,0.00,meteohub,2013-12-23 04:14:00,
2013-12-22 22:19:00,39.4,32.2,-100.00,WSW,245,0.0,10.0,75,0.00,,,0.00,meteohub,2013-12-23 04:19:00,
2013-12-22 22:24:00,39.4,32.2,-100.00,NE,53,2.0,10.0,75,0.00,,,0.00,meteohub,2013-12-23 04:24:00,
2013-12-22 22:29:00,39.2,32.4,-100.00,North,1,2.0,8.0,76,0.00,,,0.00,meteohub,2013-12-23 04:29:00,
2013-12-22 22:34:00,39.2,32.4,-100.00,NNE,19,2.0,11.0,76,0.00,,,0.00,meteohub,2013-12-23 04:34:00,
2013-12-22 22:39:00,39.0,32.2,-100.00,NE,56,2.0,11.0,76,0.00,,,0.00,meteohub,2013-12-23 04:39:00,
2013-12-22 22:44:00,39.0,32.2,-100.00,NNE,25,8.0,11.0,76,0.00,,,0.00,meteohub,2013-12-23 04:44:00,
2013-12-22 22:49:00,39.0,32.2,-100.00,NNW,343,0.0,11.0,76,0.00,,,0.00,meteohub,2013-12-23 04:49:00,
2013-12-22 22:54:00,38.8,32.0,-100.00,NW,311,0.0,10.0,76,0.00,,,0.00,meteohub,2013-12-23 04:54:00,
2013-12-22 22:59:00,38.8,32.0,-100.00,NNE,21,4.0,10.0,76,0.00,,,0.00,meteohub,2013-12-23 04:59:00,
2013-12-22 23:03:00,38.8,32.0,-100.00,NW,314,3.0,9.0,76,0.00,,,0.00,meteohub,2013-12-23 05:03:00,
2013-12-22 23:04:00,38.8,32.0,-100.00,NE,34,2.0,9.0,76,0.00,,,0.00,meteohub,2013-12-23 05:04:00,
2013-12-22 23:06:00,38.8,32.0,-100.00,North,352,5.0,9.0,76,0.00,,,0.00,meteohub,2013-12-23 05:06:00,
2013-12-22 23:09:00,38.8,32.0,-100.00,North,6,6.0,9.0,76,0.00,,,0.00,meteohub,2013-12-23 05:09:00,
2013-12-22 23:12:00,38.8,32.0,-100.00,WSW,246,1.0,9.0,76,0.00,,,0.00,meteohub,2013-12-23 05:12:00,
2013-12-22 23:18:00,38.8,32.2,-100.00,ENE,75,7.0,7.0,77,0.00,,,0.00,meteohub,2013-12-23 05:18:00,
2013-12-22 23:24:00,38.8,32.2,-100.00,WSW,243,2.0,8.0,77,0.00,,,0.00,meteohub,2013-12-23 05:24:00,
2013-12-22 23:29:00,38.8,32.2,-100.00,WNW,298,2.0,8.0,77,0.00,,,0.00,meteohub,2013-12-23 05:29:00,
2013-12-22 23:34:00,38.7,32.0,-100.00,NE,53,0.0,8.0,77,0.00,,,0.00,meteohub,2013-12-23 05:34:00,
2013-12-22 23:39:00,38.7,32.0,-100.00,NE,53,1.0,8.0,77,0.00,,,0.00,meteohub,2013-12-23 05:39:00,
2013-12-22 23:44:00,38.5,31.8,-100.00,West,270,1.0,7.0,77,0.00,,,0.00,meteohub,2013-12-23 05:44:00,
2013-12-22 23:49:00,38.3,32.0,-100.00,NE,44,1.0,6.0,78,0.00,,,0.00,meteohub,2013-12-23 05:49:00,
2013-12-22 23:54:00,38.1,31.8,-100.00,East,82,0.0,3.0,78,0.00,,,0.00,meteohub,2013-12-23 05:54:00,
2013-12-22 23:59:00,37.9,31.6,-100.00,East,79,0.0,2.0,78,0.00,,,0.00,meteohub,2013-12-23 05:59:00,